Flag for Canada Weather past 2 weeks in Dawson Creek, British Columbia, Canada

Now
32 °F

Light snow. More clouds than sun.


Feels Like: 25 °F
Forecast: 32 / 36 °F
Wind: 8 mph from Northwest

Location: Dawson Creek Airport

Current Time: Oct 23, 2014 at 2:47:21 PM

Latest Report: Oct 23, 2014 at 2:00 PM


Visibility: 1 mi

Pressure: 29.65 "Hg

Humidity: 100%

Dew point: 32 °F

Location of Dawson CreekLocation

Historic Weather in Dawson Creek — Graph

°F

Dawson Creek temperature yesterday

Maximum temperature yesterday: 55 °F (at 3:00 PM)
Minimum temperature yesterday: 30 °F (at 10:00 PM)
Average temperature yesterday: 43 °F

Past Weeks' High & Low Weather Summary

 TemperatureHumidityPressure
High72 °F (Oct 10, 12:00 PM)100% (Oct 13, 11:00 PM)30.16 "Hg (Oct 13, 11:00 PM)
Low28 °F (Oct 9, 12:00 AM)31% (Oct 10, 12:00 PM)29.47 "Hg (Oct 22, 10:00 AM)
Average45 °F76%29.71 "Hg
* Reported Oct 8 7:00 PM — Oct 23 1:00 PM, Dawson Creek, Weather by CustomWeather, © 2014

Note: Actual official high and low records may vary slightly from our data, if they occured in-between our weather recording intervals... More about our weather records

Advertising

Dawson Creek weather history for previous 24 hours

 ConditionsComfort  
Time TempWeatherWind HumidityBarometerVisibility
1:00 PM
Oct 23
32 °FLight snow. More clouds than sun.12 mph100%29.63 "Hg1 mi
12:00 PM32 °FLight snow. More clouds than sun.10 mph100%29.60 "Hg1 mi
11:00 AM32 °FLight snow. Mostly cloudy.10 mph100%29.58 "Hg1 mi
10:00 AM32 °FLight snow. Low clouds.7 mph100%29.57 "Hg1 mi
9:02 AM34 °FLight rain. Fog.5 mph100%29.54 "Hg6 mi
9:00 AM34 °FLight mixture of precip. Overcast.5 mph100%29.54 "Hg5 mi
8:52 AM34 °FLight mixture of precip. Overcast.2 mph100%29.53 "Hg5 mi
8:04 AM34 °FLight rain. Fog.3 mph93%29.52 "Hg3 mi
8:00 AM34 °FRain. Fog.2 mph93%29.52 "Hg4 mi
7:58 AM34 °FRain. Fog.No wind93%29.51 "Hg4 mi
7:04 AM34 °FMostly cloudy.3 mph93%29.50 "Hg9 mi
6:00 AM34 °FLight rain. Mostly cloudy.No wind93%29.51 "Hg9 mi
5:00 AM32 °FOvercast.2 mph93%29.51 "Hg9 mi
4:00 AM30 °FMostly cloudy.2 mph93%29.51 "Hg9 mi
3:00 AM28 °FOvercast.6 mph100%29.52 "Hg9 mi
2:00 AM28 °FPassing clouds.2 mph93%29.53 "Hg9 mi
1:00 AM28 °FPassing clouds.2 mph100%29.54 "Hg9 mi
12:00 AM30 °FClear.3 mph93%29.57 "Hg9 mi
11:00 PM
Oct 22
30 °FClear.2 mph93%29.57 "Hg9 mi
10:00 PM30 °FPassing clouds.No wind93%29.59 "Hg9 mi
9:00 PM34 °FPassing clouds.2 mph87%29.58 "Hg9 mi
8:00 PM34 °FClear.3 mph81%29.58 "Hg7 mi
7:00 PM41 °FClear.No wind70%29.57 "Hg9 mi
6:02 PM45 °FSunny.No wind57%29.57 "Hg4 mi
5:00 PM52 °FSunny.8 mph38%29.56 "Hg9 mi
4:00 PM55 °FSunny.9 mph41%29.54 "Hg9 mi
3:00 PM55 °FSunny.14 mph44%29.52 "Hg9 mi
2:00 PM54 °FMore clouds than sun.16 mph54%29.51 "Hg9 mi
Weather by CustomWeather, © 2014

See weather overviewHow to use our weather pages